WAT3730 LDSP-LDDU

Flight info

Callsign WAT3730
Flight time 0h 28m
Altitude 15000
Route SIPAL
Aircraft A320/H-SDE3FGHIRWY/LB1

Departure

Time 2026-04-28 22:39
Airport Split Saint Jerome Airport (LDSP)

Arrival

Time 2026-04-28 23:07
Airport Dubrovnik Ruđer Bošković Airport (LDDU)
Time Latitude Longitude Altitude Speed Heading
2026-04-28 22:31 43.53618 16.29671 86 ft 0 kts 109°
2026-04-28 22:33 43.53617 16.29673 86 ft 1 kts 109°
2026-04-28 22:33 43.53614 16.29685 84 ft 2 kts 109°
2026-04-28 22:33 43.53616 16.29677 85 ft 2 kts 109°
2026-04-28 22:33 43.53624 16.29657 88 ft 2 kts 163°
2026-04-28 22:34 43.53633 16.29654 87 ft 1 kts 201°
2026-04-28 22:34 43.53623 16.29644 85 ft 3 kts 226°
2026-04-28 22:34 43.53619 16.29621 87 ft 2 kts 273°
2026-04-28 22:34 43.53623 16.29610 83 ft 1 kts 298°
2026-04-28 22:35 43.53626 16.29605 83 ft 0 kts 302°
2026-04-28 22:35 43.53626 16.29604 83 ft 1 kts 303°
2026-04-28 22:35 43.53643 16.29585 87 ft 6 kts 324°
2026-04-28 22:35 43.53689 16.29525 85 ft 13 kts 288°
2026-04-28 22:36 43.53652 16.29373 86 ft 20 kts 238°
2026-04-28 22:36 43.53557 16.29203 83 ft 24 kts 233°
2026-04-28 22:36 43.53451 16.29010 83 ft 26 kts 232°
2026-04-28 22:36 43.53338 16.28809 87 ft 26 kts 232°
2026-04-28 22:37 43.53230 16.28641 88 ft 15 kts 197°
2026-04-28 22:37 43.53204 16.28578 90 ft 4 kts 327°
2026-04-28 22:37 43.53235 16.28609 90 ft 8 kts 52°
2026-04-28 22:37 43.53243 16.28623 90 ft 0 kts 52°
2026-04-28 22:38 43.53379 16.28859 87 ft 68 kts 51°
2026-04-28 22:38 43.53800 16.29616 85 ft 127 kts 52°
2026-04-28 22:38 43.54424 16.30753 209 ft 159 kts 53°
2026-04-28 22:39 43.55085 16.31957 838 ft 160 kts 52°
2026-04-28 22:39 43.55648 16.33394 1095 ft 185 kts 79°
2026-04-28 22:39 43.55562 16.35231 1540 ft 199 kts 112°
2026-04-28 22:39 43.54789 16.36678 2560 ft 179 kts 145°
2026-04-28 22:40 43.53680 16.37409 3201 ft 182 kts 166°
2026-04-28 22:40 43.52347 16.37546 3543 ft 201 kts 186°
2026-04-28 22:40 43.50982 16.37343 4423 ft 187 kts 185°
2026-04-28 22:40 43.49743 16.37557 5219 ft 183 kts 158°
2026-04-28 22:41 43.48558 16.38422 5449 ft 199 kts 147°
2026-04-28 22:41 43.47429 16.39536 5895 ft 200 kts 142°
2026-04-28 22:41 43.46321 16.40626 6659 ft 193 kts 157°
2026-04-28 22:41 43.44966 16.40927 7021 ft 210 kts 189°
2026-04-28 22:42 43.43576 16.40236 7583 ft 208 kts 214°
2026-04-28 22:42 43.42471 16.38963 8160 ft 216 kts 231°
2026-04-28 22:42 43.41811 16.37210 9063 ft 199 kts 259°
2026-04-28 22:42 43.41802 16.35353 9760 ft 198 kts 284°
2026-04-28 22:43 43.42473 16.33592 9899 ft 225 kts 316°
2026-04-28 22:43 43.43866 16.32605 10502 ft 224 kts 353°
2026-04-28 22:43 43.45307 16.32888 11547 ft 204 kts 27°
2026-04-28 22:43 43.46625 16.33648 12012 ft 213 kts 11°
2026-04-28 22:44 43.48172 16.33768 12275 ft 230 kts 352°
2026-04-28 22:44 43.49654 16.33136 13129 ft 215 kts 330°
2026-04-28 22:44 43.50935 16.32097 13690 ft 221 kts 341°
2026-04-28 22:44 43.52526 16.31902 13844 ft 243 kts 16°
2026-04-28 22:45 43.53995 16.33018 14475 ft 242 kts 47°
2026-04-28 22:45 43.54814 16.35073 14888 ft 256 kts 75°
2026-04-28 22:45 43.55275 16.37571 14995 ft 283 kts 80°
2026-04-28 22:45 43.55321 16.39414 15006 ft 300 kts 98°
2026-04-28 22:46 43.54865 16.42398 15012 ft 328 kts 102°
2026-04-28 22:46 43.54471 16.45570 15007 ft 353 kts 98°
2026-04-28 22:46 43.54071 16.49020 15002 ft 374 kts 103°
2026-04-28 22:46 43.53184 16.52430 15006 ft 381 kts 119°
2026-04-28 22:47 43.51571 16.55326 15012 ft 383 kts 133°
2026-04-28 22:47 43.49711 16.57972 15010 ft 384 kts 135°
2026-04-28 22:47 43.47805 16.60574 15009 ft 385 kts 136°
2026-04-28 22:47 43.45890 16.63150 15008 ft 385 kts 136°
2026-04-28 22:48 43.43975 16.65727 15008 ft 384 kts 136°
2026-04-28 22:48 43.42073 16.68309 15008 ft 384 kts 135°
2026-04-28 22:48 43.40186 16.70900 15008 ft 384 kts 135°
2026-04-28 22:48 43.38299 16.73506 15010 ft 383 kts 135°
2026-04-28 22:49 43.36444 16.76078 15009 ft 383 kts 135°
2026-04-28 22:49 43.34565 16.78684 15009 ft 384 kts 135°
2026-04-28 22:49 43.32686 16.81288 15013 ft 384 kts 135°
2026-04-28 22:49 43.30805 16.83886 15009 ft 384 kts 135°
2026-04-28 22:50 43.28915 16.86481 15006 ft 384 kts 135°
2026-04-28 22:50 43.27024 16.89072 15009 ft 384 kts 135°
2026-04-28 22:50 43.25134 16.91663 15012 ft 384 kts 135°
2026-04-28 22:50 43.23249 16.94254 15015 ft 384 kts 135°
2026-04-28 22:51 43.21362 16.96844 15016 ft 384 kts 135°
2026-04-28 22:51 43.19471 16.99435 15018 ft 384 kts 135°
2026-04-28 22:51 43.17580 17.02019 15019 ft 384 kts 135°
2026-04-28 22:51 43.15685 17.04603 15020 ft 384 kts 135°
2026-04-28 22:52 43.13830 17.07238 15018 ft 384 kts 130°
2026-04-28 22:52 43.12269 17.10202 15021 ft 384 kts 123°
2026-04-28 22:52 43.10787 17.13245 15019 ft 384 kts 124°
2026-04-28 22:52 43.09298 17.16289 15021 ft 384 kts 124°
2026-04-28 22:53 43.07811 17.19320 15021 ft 384 kts 124°
2026-04-28 22:53 43.06317 17.22358 15021 ft 384 kts 124°
2026-04-28 22:53 43.04826 17.25387 15021 ft 384 kts 124°
2026-04-28 22:53 43.03332 17.28417 15022 ft 384 kts 124°
2026-04-28 22:54 43.01859 17.31408 15021 ft 384 kts 124°
2026-04-28 22:54 43.00386 17.34396 14839 ft 373 kts 124°
2026-04-28 22:54 42.98953 17.37298 14486 ft 364 kts 124°
2026-04-28 22:54 42.97549 17.40139 14009 ft 359 kts 124°
2026-04-28 22:55 42.96159 17.42954 13517 ft 356 kts 124°
2026-04-28 22:55 42.94781 17.45738 13021 ft 352 kts 124°
2026-04-28 22:55 42.93413 17.48496 12546 ft 348 kts 124°
2026-04-28 22:55 42.92062 17.51222 12067 ft 345 kts 124°
2026-04-28 22:56 42.90719 17.53893 11594 ft 336 kts 127°
2026-04-28 22:56 42.89178 17.56213 11142 ft 322 kts 135°
2026-04-28 22:56 42.87633 17.58352 10708 ft 312 kts 135°
2026-04-28 22:56 42.86139 17.60430 10284 ft 302 kts 135°
2026-04-28 22:57 42.84691 17.62445 9853 ft 294 kts 135°
2026-04-28 22:57 42.83277 17.64412 9689 ft 289 kts 134°
2026-04-28 22:57 42.81887 17.66342 9557 ft 289 kts 135°
2026-04-28 22:57 42.80480 17.68296 9432 ft 288 kts 134°
2026-04-28 22:58 42.79068 17.70263 9036 ft 293 kts 134°
2026-04-28 22:58 42.77691 17.72286 8708 ft 287 kts 127°
2026-04-28 22:58 42.76658 17.74587 8078 ft 285 kts 118°
2026-04-28 22:58 42.75734 17.76978 7439 ft 285 kts 118°
2026-04-28 22:59 42.74812 17.79352 6880 ft 281 kts 118°
2026-04-28 22:59 42.73885 17.81698 6282 ft 280 kts 118°
2026-04-28 22:59 42.72973 17.84022 5669 ft 278 kts 118°
2026-04-28 22:59 42.72072 17.86330 5131 ft 274 kts 118°
2026-04-28 23:00 42.71198 17.88567 4933 ft 258 kts 118°
2026-04-28 23:00 42.70391 17.90629 4875 ft 237 kts 118°
2026-04-28 23:00 42.69650 17.92523 4814 ft 217 kts 118°
2026-04-28 23:00 42.68976 17.94243 4746 ft 194 kts 118°
2026-04-28 23:01 42.68384 17.95753 4649 ft 168 kts 118°
2026-04-28 23:01 42.67864 17.97078 4587 ft 154 kts 118°
2026-04-28 23:01 42.67371 17.98333 4516 ft 152 kts 118°
2026-04-28 23:01 42.66877 17.99592 4471 ft 151 kts 118°
2026-04-28 23:02 42.66380 18.00857 4344 ft 151 kts 118°
2026-04-28 23:02 42.65886 18.02115 4184 ft 151 kts 118°
2026-04-28 23:02 42.65394 18.03366 3992 ft 150 kts 118°
2026-04-28 23:02 42.64903 18.04615 3809 ft 149 kts 118°
2026-04-28 23:03 42.64415 18.05857 3607 ft 149 kts 118°
2026-04-28 23:03 42.63926 18.07099 3410 ft 149 kts 118°
2026-04-28 23:03 42.63440 18.08334 3210 ft 148 kts 118°
2026-04-28 23:03 42.62954 18.09566 3022 ft 148 kts 118°
2026-04-28 23:04 42.62470 18.10794 2821 ft 147 kts 118°
2026-04-28 23:04 42.61505 18.13241 2430 ft 146 kts 118°
2026-04-28 23:04 42.61025 18.14458 2237 ft 146 kts 118°
2026-04-28 23:05 42.60546 18.15672 2045 ft 146 kts 118°
2026-04-28 23:05 42.60068 18.16882 1850 ft 145 kts 118°
2026-04-28 23:05 42.59590 18.18091 1663 ft 145 kts 118°
2026-04-28 23:05 42.59115 18.19295 1463 ft 145 kts 118°
2026-04-28 23:06 42.58646 18.20480 1275 ft 144 kts 118°
2026-04-28 23:06 42.58172 18.21677 1085 ft 144 kts 118°
2026-04-28 23:06 42.57697 18.22877 891 ft 143 kts 118°
2026-04-28 23:06 42.57226 18.24065 696 ft 143 kts 118°
2026-04-28 23:07 42.56754 18.25246 577 ft 143 kts 118°
2026-04-28 23:07 42.56283 18.26414 521 ft 120 kts 119°
2026-04-28 23:07 42.56068 18.26949 519 ft 45 kts 117°
2026-04-28 23:07 42.55969 18.27255 514 ft 28 kts 123°
2026-04-28 23:08 42.55832 18.27339 512 ft 16 kts 184°
2026-04-28 23:08 42.55788 18.27230 513 ft 16 kts 297°
2026-04-28 23:08 42.55841 18.27097 515 ft 17 kts 298°
2026-04-28 23:08 42.55898 18.26952 516 ft 18 kts 298°
2026-04-28 23:09 42.55959 18.26793 518 ft 20 kts 297°
2026-04-28 23:09 42.56005 18.26637 519 ft 12 kts 252°
2026-04-28 23:09 42.55967 18.26603 519 ft 0 kts 208°